{"data":{"norad_id":59066,"epoch":"2026-05-25T04:38:39.081696Z","epoch_age_seconds":58636,"freshness":"FRESH","line1":"1 59066U 24039R   26145.19350789  .00003925  00000+0  30564-3 0  9993","line2":"2 59066  95.3915 219.2935 0146566  49.1077 312.2736 14.93340472121293","mean_motion":14.93340472,"eccentricity":0.0146566,"inclination_deg":95.3915,"raan_deg":219.2935,"arg_perigee_deg":49.1077,"mean_anomaly_deg":312.2736,"bstar":0.00030564,"rev_number":12129,"period_min":96.428110467765,"perigee_km":485.43556646758,"apogee_km":689.62151357534,"semimajor_km":6965.6655400215,"source":"CELESTRAK","updated_at":"2026-05-25T13:38:25.534451Z"}}